Regional Weather Roundup
Issued by NWS

Home | Current Version | Previous Version | Graphics & Text | Print | Product List | Glossary On
Versions: 1 2 3 4 5 6 7 8 9 10 11 12 13 14 15 16 17 18 19 20 21 22 23 24 25 26 27 28 29 30 31 32 33 34 35 36 37 38 39 40 41 42 43 44 45 46 47 48 49 50
000
ASUS43 KLMK 271002
RWRKY
KENTUCKY REGIONAL WEATHER ROUNDUP
NATIONAL WEATHER SERVICE LOUISVILLE KY
600 AM EDT MON APR 27 2015

NOTE "FAIR" INDICATES FEW OR NO CLOUDS BELOW 12,000 FEET
WITH NO SIGNIFICANT WEATHER AND/OR OBSTRUCTIONS TO VISIBILITY.

KYZ001>023-026-027-061>063-070>075-271100-
WESTERN AND SOUTH CENTRAL KENTUCKY

CITY           SKY/WX    TMP DP  RH WIND       PRES   REMARKS
PADUCAH        CLEAR     44  36  73 N9        29.98R
HENDERSON      CLEAR     45  32  61 N5        29.99R
OWENSBORO      CLEAR     45  35  67 N5        29.97S
HOPKINSVILLE   CLEAR     42  38  86 N6        29.96R
BOWLING GREEN  CLEAR     45  36  70 VRB3      29.96R
GLASGOW        NOT AVBL
$$

KYZ024-025-028>034-038-045-046-053-271100-
NORTH CENTRAL KENTUCKY

CITY           SKY/WX    TMP DP  RH WIND       PRES   REMARKS
LOUISVILLE/SDF PTCLDY    46  34  62 N3        29.94S
LOUISVILLE/LOU CLEAR     42  35  76 CALM      29.95S
FORT KNOX      CLEAR     39  34  80 N5        29.93R
$$

KYZ035>037-039>044-047>052-055>060-089>105-271100-
NORTHEAST KENTUCKY

CITY           SKY/WX    TMP DP  RH WIND       PRES   REMARKS
LEXINGTON      CLEAR     39  34  82 NW3       29.93R
COVINGTON      CLEAR     37  33  85 W6        29.91S WCI  32
FRANKFORT      CLEAR     37  33  85 CALM      29.92R
$$

KYZ054-064>069-076>088-106>120-271100-
SOUTHEAST KENTUCKY

CITY           SKY/WX    TMP DP  RH WIND       PRES   REMARKS
JACKSON        CLEAR     43  30  60 VRB5      29.89R
LONDON         PTCLDY    40  33  76 N3        29.90R
SOMERSET       NOT AVBL
MIDDLESBORO    FOG       37  37 100 CALM      29.90R VSB 1/4
MONTICELLO     SUNNY     36  36 100 CALM      29.95R
$$




USA.gov is the U.S. government's official web portal to all federal, state and local government web resources and services.